Weather History for Ann Arbor, MI

Change the Weather History Date:

Tuesday, May 28, 2013

  Actual Average Record
Temperature  
Mean Temperature 65 °F -  
Max Temperature 79 °F 67 °F 93 °F (2012)
Min Temperature 52 °F 45 °F 35 °F (2008)
Growing Degree Days 15 (Base 50)    
Moisture  
Dew Point 62 °F    
Average Humidity 87    
Maximum Humidity 100    
Minimum Humidity 71    
Precipitation  
Precipitation 0.13 in - - ()
Sea Level Pressure  
Sea Level Pressure 29.91 in    
Wind  
Wind Speed 5 mph (SSE)    
Max Wind Speed 15 mph    
Max Gust Speed 24 mph    
Visibility 6 miles    
Events Rain , Thunderstorm    
Averages and records for this station are not official NWS values.
T = Trace of Precipitation, MM = Missing Value Source: NWS Daily Summary

Daily Weather History Graph

Daily Weather History Graph

Search for Another Location

Airport:

Trip Planner

Search our weather history database for the weather conditions in past years. The results will help you decide how hot, cold, wet, or windy it might be!

Date:

Astronomy

May. 28, 2013 Rise Set
Actual Time 6:03 AM EDT 9:01 PM EDT
Civil Twilight 5:29 AM EDT 9:35 PM EDT
Nautical Twilight 4:47 AM EDT 10:18 PM EDT
Astronomical Twilight 3:57 AM EDT 11:08 PM EDT
Moon No Moon Rise 9:52 AM EDT (5/28)
Length of Visible Light 16h 05m
Length of Day
14h 58m
Waning Gibbous, 83% of the Moon is Illuminated
May 28
Waning Gibbous
May 31
Last Quarter
Jun 8
New
Jun 16
First Quarter
Jun 23
Full

Hourly Weather History & Observations

Time (EDT) Temp. Dew Point Humidity Pressure Visibility Wind Dir Wind Speed Gust Speed Precip Events Conditions
12:53 AM 52.0 °F - N/A% 29.99 in 5.0 mi East 5.8 mph - 0.02 in   Haze
1:53 AM 52.0 °F - N/A% 29.98 in 4.0 mi East 4.6 mph - N/A   Haze
2:53 AM 52.0 °F - N/A% 29.96 in 4.0 mi East 5.8 mph - 0.00 in   Haze
3:53 AM 53.1 °F - N/A% 29.95 in 3.0 mi East 3.5 mph - 0.01 in   Overcast
4:53 AM 53.1 °F 53.1 °F 100% 29.93 in 3.0 mi East 3.5 mph - N/A   Overcast
5:01 AM 53.6 °F 53.6 °F 100% 29.93 in 2.5 mi East 4.6 mph - N/A   Overcast
5:53 AM 53.1 °F 53.1 °F 100% 29.95 in 2.0 mi East 3.5 mph - N/A   Overcast
6:07 AM 53.6 °F 53.6 °F 100% 29.95 in 1.8 mi Calm Calm - N/A   Overcast
6:36 AM 53.6 °F 53.6 °F 100% 29.95 in 1.2 mi East 3.5 mph - N/A   Overcast
6:53 AM 54.0 °F 53.1 °F 97% 29.96 in 1.2 mi East 3.5 mph - N/A   Overcast
7:42 AM 53.6 °F 53.6 °F 100% 29.97 in 1.8 mi Calm Calm - 0.02 in Rain Light Rain
7:53 AM 54.0 °F - N/A% 29.98 in 1.5 mi Calm Calm - 0.02 in   Overcast
8:43 AM 55.4 °F - N/A% 29.94 in 1.5 mi East 4.6 mph - 0.04 in Rain , Thunderstorm Light Rain
8:51 AM 55.4 °F - N/A% 29.94 in 1.5 mi NE 3.5 mph - 0.04 in Rain , Thunderstorm Light Rain
8:53 AM 55.0 °F - N/A% 29.95 in 1.5 mi Calm Calm - 0.04 in Thunderstorm Overcast
9:11 AM 55.4 °F 55.4 °F 100% 29.94 in 1.8 mi Calm Calm - N/A   Overcast
9:34 AM 57.2 °F 55.4 °F 94% 29.94 in 2.0 mi ESE 4.6 mph - N/A   Mostly Cloudy
9:53 AM 57.9 °F 55.9 °F 93% 29.94 in 2.0 mi SSE 3.5 mph - N/A   Overcast
10:09 AM 57.2 °F 55.4 °F 94% 29.93 in 2.0 mi SE 5.8 mph - N/A Thunderstorm Overcast
10:25 AM 59.0 °F 57.2 °F 94% 29.93 in 2.5 mi SSE 6.9 mph - N/A   Overcast
10:34 AM 59.0 °F 57.2 °F 94% 29.93 in 3.0 mi SE 5.8 mph - N/A   Overcast
10:53 AM 60.1 °F 57.9 °F 93% 29.93 in 4.0 mi SE 4.6 mph - N/A   Overcast
11:30 AM 64.4 °F 60.8 °F 88% 29.93 in 7.0 mi Variable 3.5 mph - N/A   Mostly Cloudy
11:53 AM 66.0 °F 63.0 °F 90% 29.91 in 7.0 mi SSE 4.6 mph - N/A   Mostly Cloudy
12:33 PM 69.8 °F 64.4 °F 83% 29.89 in 8.0 mi SE 4.6 mph - N/A   Overcast
12:53 PM 70.0 °F 66.0 °F 87% 29.89 in 8.0 mi SSE 8.1 mph - N/A   Overcast
1:04 PM 71.6 °F 66.2 °F 83% 29.89 in 8.0 mi SE 5.8 mph - N/A   Overcast
1:53 PM 73.0 °F 66.0 °F 79% 29.88 in 10.0 mi SSW 8.1 mph - N/A   Overcast
2:40 PM 75.2 °F 68.0 °F 78% 29.86 in 10.0 mi SSW 9.2 mph - 0.00 in   Mostly Cloudy
2:53 PM 75.9 °F 68.0 °F 76% 29.85 in 10.0 mi SSW 9.2 mph - 0.00 in   Mostly Cloudy
3:32 PM 75.2 °F 66.2 °F 73% 29.87 in 10.0 mi SW 10.4 mph 20.7 mph N/A   Mostly Cloudy
3:50 PM 77.0 °F 68.0 °F 74% 29.87 in 10.0 mi SW 12.7 mph 19.6 mph N/A   Mostly Cloudy
3:53 PM 78.1 °F 68.0 °F 71% 29.86 in 10.0 mi SW 11.5 mph 19.6 mph N/A   Scattered Clouds
4:53 PM 75.9 °F 66.9 °F 74% 29.85 in 10.0 mi SW 11.5 mph 21.9 mph N/A   Overcast
5:53 PM 75.9 °F 66.9 °F 74% 29.84 in 10.0 mi SW 15.0 mph 24.2 mph N/A   Overcast
6:53 PM 73.0 °F 70.0 °F 90% 29.85 in 8.0 mi West 5.8 mph - 0.04 in   Mostly Cloudy
7:53 PM 75.0 °F 70.0 °F 84% 29.84 in 9.0 mi SSW 9.2 mph - N/A   Clear
8:53 PM 75.0 °F 66.0 °F 73% 29.83 in 10.0 mi SW 10.4 mph - N/A   Mostly Cloudy
9:53 PM 73.9 °F 66.0 °F 76% 29.82 in 10.0 mi SSW 10.4 mph - N/A   Mostly Cloudy
10:53 PM 73.9 °F 66.0 °F 76% 29.83 in 10.0 mi SSW 9.2 mph - N/A   Mostly Cloudy
11:53 PM 73.0 °F 66.0 °F 79% 29.83 in 10.0 mi SSW 11.5 mph - N/A   Mostly Cloudy